1514120400.15,40219,9.38,73312.8,-3.05,-3.79,-3.83,0,*5D
1514120401.34,40220,9.38,73320.3,-3.07,-3.87,-3.87,0,*50
1514120402.57,40221,9.38,73314.3,-3.05,-3.83,-3.79,0,*56
1514120403.8,40222,9.38,73306.5,-3.05,-3.83,-3.79,0,*55
1514120405.0,40223,9.38,73296.0,-3.07,-3.87,-3.83,0,*57
1514120406.21,40224,9.38,73294.5,-3.03,-3.79,-3.75,0,*5C
1514120407.43,40225,9.38,73296.3,-3.05,-3.83,-3.83,0,*57
1514120408.65,40226,9.38,73294.0,-3.05,-3.87,-3.83,0,*50
1514120409.88,40227,9.38,73300.8,-3.05,-3.83,-3.79,0,*50
1514120411.11,40228,9.38,73286.3,-3.05,-3.83,-3.79,0,*5F
1514120412.34,40229,9.38,73260.8,-3.05,-3.79,-3.79,0,*5B
1514120413.56,40230,9.38,73256.5,-3.05,-3.83,-3.79,0,*56
1514120414.79,40231,9.38,73260.0,-3.05,-3.79,-3.79,0,*52
1514120416.02,40232,9.38,73280.5,-3.05,-3.79,-3.79,0,*51
1514120417.25,40233,9.38,73300.0,-3.05,-3.79,-3.79,0,*50
1514120418.49,40234,9.38,73312.5,-3.05,-3.79,-3.71,0,*5F
1514120419.72,40235,9.38,73330.3,-3.05,-3.83,-3.79,0,*53
1514120420.95,40236,9.38,73324.0,-3.05,-3.79,-3.79,0,*55
1514120422.18,40237,9.38,73330.3,-3.05,-3.79,-3.79,0,*54
1514120423.37,40238,9.38,73320.8,-3.07,-3.87,-3.83,0,*5D
1514120424.6,40239,9.38,73318.5,-3.05,-3.83,-3.79,0,*5F
1514120425.83,40240,9.38,73316.5,-3.05,-3.79,-3.79,0,*54
1514120427.04,40241,9.38,73314.8,-3.03,-3.79,-3.79,0,*53
1514120428.24,40242,9.38,73308.8,-3.07,-3.87,-3.87,0,*54
1514120429.44,40243,9.38,73296.3,-3.07,-3.83,-3.87,0,*51
1514120430.67,40244,9.38,73306.5,-3.05,-3.83,-3.79,0,*55
1514120431.87,40245,9.38,73322.0,-3.07,-3.87,-3.83,0,*57
1514120433.06,40246,9.38,73328.3,-3.07,-3.87,-3.87,0,*50
1514120434.29,40247,9.38,73336.8,-3.05,-3.79,-3.83,0,*56
1514120435.51,40248,9.38,73332.0,-3.05,-3.83,-3.83,0,*5C
1514120436.76,40249,9.38,73334.3,-3.05,-3.71,-3.79,0,*55
1514120437.96,40250,9.38,73330.5,-3.07,-3.83,-3.87,0,*53
1514120439.19,40251,9.38,73320.5,-3.05,-3.83,-3.83,0,*54
1514120440.39,40252,9.38,73324.0,-3.07,-3.83,-3.83,0,*55
1514120441.62,40253,9.38,73304.3,-3.05,-3.83,-3.79,0,*53
1514120442.85,40254,9.38,73302.3,-3.05,-3.83,-3.79,0,*54
1514120444.05,40255,9.38,73280.5,-3.07,-3.87,-3.83,0,*56
1514120445.27,40256,9.38,73252.8,-3.05,-3.79,-3.79,0,*53
1514120446.5,40257,9.38,73248.8,-3.05,-3.83,-3.83,0,*52
1514120447.72,40258,9.38,73292.3,-3.05,-3.79,-3.83,0,*58
1514120448.93,40259,9.38,73288.8,-3.07,-3.87,-3.75,0,*53
1514120450.13,40260,9.38,73294.3,-3.07,-3.83,-3.87,0,*50
1514120451.36,40261,9.38,73292.3,-3.05,-3.83,-3.79,0,*52
1514120452.59,40262,9.38,73310.3,-3.05,-3.79,-3.79,0,*54
1514120453.81,40263,9.38,73298.3,-3.05,-3.79,-3.83,0,*50
1514120455.01,40264,9.38,73300.0,-3.07,-3.83,-3.83,0,*50
1514120456.24,40265,9.38,73296.3,-3.05,-3.83,-3.79,0,*56
1514120457.47,40266,9.38,73292.3,-3.05,-3.79,-3.83,0,*55
1514120458.69,40267,9.38,73288.0,-3.05,-3.79,-3.83,0,*54
1514120459.92,40268,9.38,73284.8,-3.05,-3.83,-3.79,0,*5B
1514120461.15,40269,9.38,73298.0,-3.05,-3.83,-3.83,0,*5F
1514120462.34,40270,9.38,73294.0,-3.07,-3.87,-3.87,0,*55
1514120463.57,40271,9.38,73288.0,-3.05,-3.83,-3.83,0,*56
1514120464.8,40272,9.38,73298.8,-3.05,-3.79,-3.79,0,*55
1514120466.02,40273,9.38,73286.8,-3.05,-3.83,-3.83,0,*54
1514120467.22,40274,9.38,73270.3,-3.07,-3.87,-3.75,0,*5C
1514120468.45,40275,9.38,73270.0,-3.05,-3.79,-3.83,0,*57
1514120469.65,40276,9.38,73276.5,-3.07,-3.87,-3.87,0,*53
1514120470.85,40277,9.38,73280.0,-3.07,-3.83,-3.83,0,*52
1514120472.05,40278,9.38,73290.8,-3.07,-3.87,-3.87,0,*5D
1514120473.25,40279,9.38,73292.8,-3.07,-3.87,-3.87,0,*5C
1514120474.47,40280,9.38,73304.0,-3.05,-3.79,-3.83,0,*5D
1514120475.67,40281,9.38,73296.8,-3.07,-3.87,-3.83,0,*5F
1514120476.87,40282,9.38,73308.8,-3.07,-3.87,-3.87,0,*58
1514120478.07,40283,9.38,73306.5,-3.07,-3.87,-3.87,0,*59
1514120479.27,40284,9.38,73310.0,-3.07,-3.83,-3.83,0,*5E
1514120480.47,40285,9.38,73310.3,-3.07,-3.83,-3.87,0,*5B
1514120481.69,40286,9.38,73318.0,-3.07,-3.87,-3.71,0,*55
1514120482.89,40287,9.38,73310.5,-3.07,-3.87,-3.87,0,*5D
1514120484.09,40288,9.38,73310.8,-3.07,-3.87,-3.87,0,*52
1514120485.29,40289,9.38,73326.5,-3.07,-3.83,-3.87,0,*57
1514120486.49,40290,9.38,73314.3,-3.07,-3.83,-3.83,0,*5B
1514120487.69,40291,9.38,73288.8,-3.07,-3.87,-3.83,0,*5E
1514120488.89,40292,9.38,73296.8,-3.07,-3.87,-3.83,0,*5D
1514120490.1,40293,9.38,73304.3,-3.07,-3.83,-3.87,0,*5C
1514120491.3,40294,9.38,73284.5,-3.07,-3.83,-3.83,0,*5F
1514120492.5,40295,9.38,73294.0,-3.07,-3.83,-3.83,0,*5E
1514120493.73,40296,9.38,73302.0,-3.05,-3.83,-3.79,0,*5A
1514120494.94,40297,9.38,73308.0,-3.07,-3.83,-3.83,0,*5C
1514120496.13,40298,9.38,73292.5,-3.07,-3.87,-3.87,0,*53
1514120497.33,40299,9.38,73292.8,-3.07,-3.87,-3.83,0,*56
1514120498.53,40300,9.38,73292.5,-3.07,-3.87,-3.83,0,*57
1514120499.73,40301,9.38,73300.0,-3.07,-3.87,-3.83,0,*56
1514120500.93,40302,9.38,73304.0,-3.07,-3.87,-3.83,0,*55
1514120502.13,40303,9.38,73318.0,-3.07,-3.87,-3.87,0,*50
1514120503.32,40304,9.38,73316.3,-3.07,-3.87,-3.83,0,*53
1514120504.53,40305,9.38,73312.8,-3.07,-3.79,-3.79,0,*56
1514120505.73,40306,9.38,73324.3,-3.07,-3.87,-3.83,0,*51
1514120506.93,40307,9.38,73326.3,-3.07,-3.87,-3.83,0,*50
1514120508.13,40308,9.38,73324.3,-3.07,-3.87,-3.83,0,*5F
1514120509.35,40309,9.38,73324.0,-3.05,-3.79,-3.79,0,*58
1514120510.56,40310,9.38,73328.5,-3.07,-3.83,-3.83,0,*52
1514120511.76,40311,9.38,73332.8,-3.07,-3.83,-3.87,0,*57
1514120512.96,40312,9.38,73334.8,-3.07,-3.87,-3.87,0,*50
1514120514.19,40313,9.38,73330.3,-3.05,-3.79,-3.83,0,*56
1514120515.39,40314,9.38,73322.8,-3.07,-3.87,-3.83,0,*52
1514120516.59,40315,9.38,73322.0,-3.07,-3.83,-3.87,0,*53
1514120517.79,40316,9.38,73310.8,-3.07,-3.87,-3.87,0,*54
1514120519.01,40317,9.38,73306.3,-3.05,-3.79,-3.79,0,*57
1514120520.22,40318,9.38,73308.8,-3.07,-3.83,-3.87,0,*5E
1514120521.42,40319,9.38,73300.8,-3.07,-3.87,-3.83,0,*5F
1514120522.61,40320,9.38,73302.5,-3.07,-3.87,-3.87,0,*51
1514120523.82,40321,9.38,73296.0,-3.07,-3.83,-3.83,0,*50
1514120525.02,40322,9.38,73298.3,-3.07,-3.87,-3.87,0,*53
1514120526.24,40323,9.38,73298.0,-3.05,-3.79,-3.79,0,*50
1514120527.44,40324,9.38,73298.3,-3.07,-3.87,-3.87,0,*55
1514120528.65,40325,9.38,73308.8,-3.07,-3.83,-3.87,0,*50
1514120529.85,40326,9.38,73296.3,-3.07,-3.83,-3.83,0,*57
1514120531.05,40327,9.38,73298.5,-3.07,-3.87,-3.83,0,*52
1514120532.25,40328,9.38,73298.0,-3.07,-3.83,-3.83,0,*59
1514120533.45,40329,9.38,73288.3,-3.07,-3.87,-3.87,0,*58
1514120534.65,40330,9.38,73284.5,-3.07,-3.87,-3.87,0,*50
1514120535.85,40331,9.38,73278.0,-3.07,-3.83,-3.83,0,*51
1514120537.08,40332,9.38,73296.0,-3.09,-3.83,-3.83,0,*5C
1514120538.29,40333,9.38,73294.8,-3.07,-3.83,-3.83,0,*53
1514120539.49,40334,9.38,73298.3,-3.07,-3.83,-3.83,0,*54
1514120540.7,40335,9.38,73306.0,-3.07,-3.83,-3.83,0,*55
1514120541.92,40336,9.38,73300.3,-3.09,-3.87,-3.87,0,*58
1514120543.15,40337,9.38,73302.5,-3.09,-3.83,-3.87,0,*5D
1514120544.38,40338,9.38,73314.8,-3.09,-3.83,-3.83,0,*56
1514120545.58,40339,9.38,73296.5,-3.07,-3.87,-3.83,0,*5D
1514120546.78,40340,9.38,73310.5,-3.07,-3.87,-3.87,0,*57
1514120547.97,40341,9.38,73316.8,-3.07,-3.87,-3.87,0,*56
1514120549.17,40342,9.38,73320.5,-3.07,-3.87,-3.87,0,*55
1514120550.4,40343,9.38,73320.0,-3.09,-3.83,-3.87,0,*5E
1514120551.63,40344,9.38,73330.0,-3.09,-3.87,-3.83,0,*59
1514120552.85,40345,9.38,73322.0,-3.09,-3.87,-3.83,0,*58
1514120554.07,40346,9.38,73320.5,-3.09,-3.87,-3.87,0,*5F
1514120555.3,40347,9.38,73320.8,-3.09,-3.87,-3.87,0,*5E
1514120556.52,40348,9.38,73326.8,-3.09,-3.87,-3.87,0,*51
1514120557.72,40349,9.38,73322.8,-3.07,-3.83,-3.87,0,*5A
1514120558.95,40350,9.38,73328.3,-3.09,-3.87,-3.83,0,*5C
1514120560.17,40351,9.38,73322.3,-3.09,-3.87,-3.83,0,*5D
1514120561.4,40352,9.38,73320.0,-3.09,-3.87,-3.87,0,*5A
1514120562.63,40353,9.38,73304.3,-3.09,-3.83,-3.83,0,*5B
1514120563.86,40354,9.38,73296.0,-3.09,-3.83,-3.83,0,*5C
1514120565.08,40355,9.38,73292.5,-3.09,-3.87,-3.83,0,*59
1514120566.31,40356,9.38,73302.8,-3.09,-3.87,-3.83,0,*5A
1514120567.54,40357,9.38,73288.0,-3.09,-3.83,-3.83,0,*5F
1514120568.74,40358,9.38,73292.8,-3.11,-3.91,-3.91,0,*59
1514120569.97,40359,9.38,73290.8,-3.09,-3.87,-3.87,0,*51
1514120571.17,40360,9.38,73226.3,-3.07,-3.83,-3.83,0,*55
1514120572.39,40361,9.38,73230.3,-3.09,-3.87,-3.87,0,*5A
1514120573.62,40362,9.38,73264.0,-3.09,-3.87,-3.87,0,*59
1514120574.85,40363,9.38,73266.5,-3.09,-3.83,-3.87,0,*5C
1514120576.08,40364,9.38,73266.8,-3.09,-3.83,-3.83,0,*5F
1514120577.31,40365,9.38,73262.8,-3.09,-3.83,-3.83,0,*5E
1514120578.51,40366,9.38,73256.3,-3.11,-3.91,-3.87,0,*53
1514120579.74,40367,9.38,73262.5,-3.09,-3.87,-3.87,0,*5C
1514120580.97,40368,9.38,73272.8,-3.09,-3.83,-3.87,0,*57
1514120582.2,40369,9.38,73282.5,-3.09,-3.83,-3.83,0,*52
1514120583.43,40370,9.38,73276.3,-3.09,-3.83,-3.87,0,*5E
1514120584.66,40371,9.38,73282.0,-3.09,-3.83,-3.87,0,*5F
1514120585.88,40372,9.38,73282.3,-3.09,-3.87,-3.87,0,*58
1514120587.09,40373,9.38,73284.3,-3.11,-3.91,-3.91,0,*50
1514120588.29,40374,9.38,73292.0,-3.11,-3.91,-3.87,0,*50
1514120589.51,40375,9.38,73290.5,-3.09,-3.87,-3.83,0,*5B
1514120590.74,40376,9.38,73284.0,-3.09,-3.87,-3.83,0,*58
1514120591.96,40377,9.38,73280.0,-3.09,-3.87,-3.83,0,*59
1514120593.16,40378,9.38,73270.0,-3.11,-3.87,-3.83,0,*5F
1514120594.39,40379,9.38,73274.0,-3.09,-3.87,-3.83,0,*57
1514120595.61,40380,9.38,73282.5,-3.09,-3.83,-3.87,0,*51
1514120596.84,40381,9.38,73286.0,-3.09,-3.87,-3.83,0,*50
1514120598.05,40382,9.38,73280.8,-3.11,-3.91,-3.91,0,*5E
1514120599.27,40383,9.38,73288.0,-3.09,-3.87,-3.87,0,*56
1514120600.49,40384,9.38,73286.0,-3.09,-3.87,-3.83,0,*55
1514120601.7,40385,9.38,73290.5,-3.11,-3.91,-3.91,0,*59
1514120602.93,40386,9.38,73280.5,-3.09,-3.87,-3.87,0,*53
1514120604.13,40387,9.38,73290.0,-3.11,-3.87,-3.91,0,*5C
1514120605.34,40388,9.38,73306.5,-3.11,-3.91,-3.91,0,*54
1514120606.54,40389,9.38,73320.8,-3.11,-3.91,-3.87,0,*52
1514120607.74,40390,9.38,73336.3,-3.11,-3.87,-3.91,0,*5A
1514120608.95,40391,9.38,73338.5,-3.11,-3.91,-3.91,0,*5C
1514120610.16,40392,9.38,73336.0,-3.11,-3.91,-3.91,0,*5F
1514120611.38,40393,9.38,73324.8,-3.09,-3.87,-3.87,0,*57
1514120612.6,40394,9.38,73322.3,-3.09,-3.87,-3.87,0,*50
1514120613.83,40395,9.38,73328.5,-3.09,-3.87,-3.83,0,*55
1514120615.03,40396,9.38,73330.5,-3.11,-3.87,-3.91,0,*5C
1514120616.23,40397,9.38,73320.5,-3.11,-3.87,-3.91,0,*5D
1514120617.44,40398,9.38,73322.0,-3.11,-3.91,-3.91,0,*55
1514120618.66,40399,9.38,73322.8,-3.09,-3.87,-3.83,0,*59
1514120619.87,40400,9.38,73320.3,-3.11,-3.91,-3.91,0,*53
1514120621.1,40401,9.38,73316.0,-3.13,-3.91,-3.87,0,*57
1514120622.32,40402,9.38,73322.5,-3.13,-3.87,-3.91,0,*54
1514120623.53,40403,9.38,73318.5,-3.11,-3.91,-3.91,0,*50
1514120624.74,40404,9.38,73298.8,-3.11,-3.91,-3.91,0,*57
1514120625.94,40405,9.38,73294.3,-3.11,-3.87,-3.91,0,*51
1514120627.15,40406,9.38,73328.3,-3.11,-3.91,-3.91,0,*55
1514120628.38,40407,9.38,73328.0,-3.09,-3.83,-3.87,0,*59
1514120629.58,40408,9.38,73318.5,-3.11,-3.91,-3.87,0,*5C
1514120630.78,40409,9.38,73322.3,-3.11,-3.87,-3.91,0,*5D
1514120631.99,40410,9.38,73324.8,-3.11,-3.91,-3.91,0,*52
1514120633.19,40411,9.38,73324.8,-3.11,-3.87,-3.87,0,*53
1514120634.39,40412,9.38,73328.3,-3.11,-3.91,-3.87,0,*57
1514120635.6,40413,9.38,73320.5,-3.11,-3.91,-3.91,0,*51
1514120636.81,40414,9.38,73308.0,-3.11,-3.91,-3.91,0,*56
1514120638.01,40415,9.38,73306.8,-3.11,-3.91,-3.87,0,*50
1514120639.21,40416,9.38,73318.3,-3.11,-3.87,-3.91,0,*53
1514120640.42,40417,9.38,73304.5,-3.11,-3.91,-3.91,0,*55
1514120641.62,40418,9.38,73282.0,-3.11,-3.91,-3.87,0,*5D
1514120642.83,40419,9.38,73290.0,-3.11,-3.91,-3.91,0,*5B
1514120644.04,40420,9.38,73282.3,-3.11,-3.91,-3.91,0,*51
1514120645.25,40421,9.38,73278.3,-3.11,-3.91,-3.91,0,*50
1514120646.45,40422,9.38,73298.0,-3.11,-3.91,-3.87,0,*54
1514120647.65,40423,9.38,73304.8,-3.11,-3.91,-3.87,0,*55
1514120648.86,40424,9.38,73310.0,-3.11,-3.91,-3.91,0,*55
1514120650.06,40425,9.38,73322.3,-3.11,-3.87,-3.87,0,*54
1514120651.26,40426,9.38,73330.8,-3.11,-3.91,-3.87,0,*50
1514120652.47,40427,9.38,73292.0,-3.11,-3.91,-3.91,0,*56
1514120653.68,40428,9.38,73284.3,-3.11,-3.91,-3.91,0,*59
1514120654.9,40429,9.38,73298.0,-3.09,-3.87,-3.83,0,*55
1514120656.13,40430,9.38,73292.8,-3.13,-3.91,-3.91,0,*52
1514120657.37,40431,9.38,73284.3,-3.13,-3.91,-3.91,0,*53
1514120658.6,40432,9.38,73298.0,-3.13,-3.91,-3.91,0,*50
1514120659.8,40433,9.38,73296.5,-3.11,-3.87,-3.91,0,*54
1514120661.0,40434,9.38,73312.3,-3.11,-3.91,-3.87,0,*53
1514120662.21,40435,9.38,73318.3,-3.11,-3.91,-3.91,0,*55
1514120663.44,40436,9.38,73304.5,-3.13,-3.91,-3.87,0,*53
1514120664.65,40437,9.38,73312.5,-3.11,-3.91,-3.91,0,*57
1514120665.88,40438,9.38,73310.5,-3.13,-3.91,-3.91,0,*5A
1514120667.11,40439,9.38,73320.3,-3.13,-3.91,-3.91,0,*5B
1514120668.34,40440,9.38,73288.8,-3.13,-3.91,-3.91,0,*55
1514120669.57,40441,9.38,73292.3,-3.17,-3.95,-3.95,0,*50
1514120670.8,40442,9.38,73288.0,-3.13,-3.91,-3.91,0,*57
1514120672.02,40443,9.38,73282.5,-3.17,-3.95,-3.95,0,*52
1514120673.25,40444,9.38,73298.3,-3.13,-3.91,-3.91,0,*51
1514120674.48,40445,9.38,73304.0,-3.17,-3.95,-3.95,0,*54
1514120675.7,40446,9.38,73308.8,-3.13,-3.87,-3.91,0,*54
1514120676.93,40447,9.38,73304.0,-3.13,-3.87,-3.91,0,*55
1514120678.16,40448,9.38,73308.3,-3.13,-3.91,-3.91,0,*5D
1514120679.39,40449,9.38,73302.5,-3.13,-3.91,-3.91,0,*5C
1514120680.63,40450,9.38,73306.3,-3.13,-3.91,-3.91,0,*54
1514120681.86,40451,9.38,73304.5,-3.17,-3.91,-3.91,0,*51
1514120683.08,40452,9.38,73300.8,-3.13,-3.87,-3.91,0,*51
1514120684.31,40453,9.38,73298.8,-3.13,-3.91,-3.91,0,*57
1514120685.54,40454,9.38,73286.3,-3.17,-3.95,-3.95,0,*54
1514120686.76,40455,9.38,73296.8,-3.17,-3.95,-3.95,0,*55
1514120687.99,40456,9.38,73288.8,-3.13,-3.91,-3.87,0,*55
1514120689.21,40457,9.38,73296.8,-3.13,-3.87,-3.95,0,*50
1514120690.44,40458,9.38,73292.8,-3.17,-3.95,-3.95,0,*58
1514120691.67,40459,9.38,73292.8,-3.13,-3.91,-3.91,0,*5D
1514120692.9,40460,9.38,73296.3,-3.13,-3.91,-3.91,0,*57
1514120694.13,40461,9.38,73298.5,-3.13,-3.91,-3.91,0,*56
1514120695.37,40462,9.38,73302.8,-3.13,-3.91,-3.91,0,*55
1514120696.6,40463,9.38,73304.8,-3.17,-3.95,-3.91,0,*54
1514120697.82,40464,9.38,73300.8,-3.13,-3.91,-3.95,0,*57
1514120699.05,40465,9.38,73298.8,-3.17,-3.95,-3.95,0,*56
1514120700.28,40466,9.38,73288.3,-3.13,-3.91,-3.91,0,*51
1514120701.51,40467,9.38,73288.5,-3.17,-3.95,-3.95,0,*54
1514120702.74,40468,9.38,73284.8,-3.17,-3.95,-3.91,0,*5F
1514120703.96,40469,9.38,73288.8,-3.17,-3.95,-3.95,0,*5A
1514120705.19,40470,9.38,73292.3,-3.17,-3.95,-3.95,0,*52
1514120706.44,40471,9.38,73290.0,-3.17,-4.01,-3.91,0,*5D
1514120707.67,40472,9.38,73292.8,-3.13,-3.91,-3.91,0,*54
1514120708.9,40473,9.38,73286.3,-3.17,-3.91,-3.95,0,*55
1514120710.13,40474,9.38,73302.5,-3.17,-3.95,-3.95,0,*56
1514120711.36,40475,9.38,73300.8,-3.17,-3.91,-3.95,0,*53
1514120712.58,40476,9.38,73300.8,-3.17,-3.95,-3.95,0,*54
1514120713.82,40477,9.38,73298.0,-3.13,-3.91,-3.91,0,*51
1514120715.04,40478,9.38,73302.3,-3.17,-3.95,-3.95,0,*5A
1514120716.27,40479,9.38,73296.5,-3.17,-3.95,-3.95,0,*5B
1514120717.5,40480,9.38,73290.0,-3.17,-3.95,-3.91,0,*59
1514120718.72,40481,9.38,73288.5,-3.17,-3.95,-3.95,0,*5C
1514120719.95,40482,9.38,73300.5,-3.17,-3.95,-3.95,0,*5F
1514120721.18,40483,9.38,73278.3,-3.17,-3.95,-3.95,0,*5E
1514120722.4,40484,9.38,73286.5,-3.13,-3.91,-3.87,0,*5A
1514120723.65,40485,9.38,73280.8,-3.17,-4.01,-3.95,0,*52
1514120724.91,40486,9.38,73280.8,-3.17,-4.01,-3.95,0,*51
1514120726.14,40487,9.38,73282.0,-3.17,-3.91,-3.95,0,*5E
1514120727.36,40488,9.38,73290.0,-3.17,-3.95,-3.95,0,*55
1514120728.59,40489,9.38,73280.3,-3.17,-3.95,-3.95,0,*54
1514120729.81,40490,9.38,73282.3,-3.17,-3.95,-3.95,0,*5C
1514120731.04,40491,9.38,73294.0,-3.17,-3.95,-3.95,0,*5D
1514120732.26,40492,9.38,73292.0,-3.17,-3.95,-3.95,0,*5E
1514120733.49,40493,9.38,73294.3,-3.17,-3.95,-3.95,0,*5F
1514120734.72,40494,9.38,73296.3,-3.17,-3.95,-3.95,0,*58
1514120735.94,40495,9.38,73296.8,-3.17,-3.95,-3.95,0,*59
1514120737.19,40496,9.38,73294.5,-3.17,-4.01,-3.95,0,*50
1514120738.45,40497,9.38,73294.0,-3.17,-4.01,-3.95,0,*51
1514120739.65,40498,9.38,73290.3,-3.19,-3.95,-3.91,0,*5E
1514120740.85,40499,9.38,73296.8,-3.19,-3.95,-3.95,0,*5B
1514120742.09,40500,9.38,73304.5,-3.19,-4.01,-3.91,0,*54
1514120743.31,40501,9.38,73304.5,-3.19,-4.01,-3.95,0,*51
1514120744.59,40502,9.38,73302.8,-3.17,-4.01,-4.01,0,*56
1514120745.82,40503,9.38,73298.8,-3.19,-4.01,-3.95,0,*53
1514120747.05,40504,9.38,73298.5,-3.19,-4.01,-3.95,0,*54
1514120748.28,40505,9.38,73290.5,-3.19,-4.01,-3.91,0,*51
1514120749.5,40506,9.38,73268.0,-3.19,-4.01,-3.95,0,*56
1514120750.73,40507,9.38,73290.8,-3.19,-4.01,-3.91,0,*53
1514120751.94,40508,9.38,73288.0,-3.19,-3.95,-3.91,0,*56
1514120753.14,40509,9.38,73292.0,-3.19,-3.95,-3.95,0,*53
1514120754.37,40510,9.38,73296.3,-3.19,-4.01,-3.95,0,*51
1514120755.65,40511,9.38,73292.8,-3.21,-4.01,-4.01,0,*51
1514120756.85,40512,9.38,73282.3,-3.19,-3.95,-3.95,0,*59
1514120758.13,40513,9.38,73278.5,-3.21,-4.01,-4.01,0,*53
1514120759.33,40514,9.38,73270.5,-3.19,-3.95,-3.95,0,*5F
1514120760.54,40515,9.38,73284.5,-3.19,-3.95,-3.91,0,*5A
1514120761.74,40516,9.38,73234.5,-3.19,-3.95,-3.95,0,*5D
1514120762.97,40517,9.38,73198.8,-3.19,-4.01,-3.95,0,*56
1514120764.17,40518,9.38,73202.0,-3.19,-3.95,-3.95,0,*53
1514120765.42,40519,9.38,73228.8,-3.21,-4.01,-3.95,0,*53
1514120766.62,40520,9.38,73240.8,-3.19,-3.95,-3.95,0,*58
1514120767.83,40521,9.38,73244.0,-3.19,-3.91,-3.95,0,*5D
1514120769.03,40522,9.38,73240.8,-3.19,-3.95,-3.95,0,*5A
1514120770.23,40523,9.38,73240.8,-3.19,-3.95,-3.95,0,*5B
1514120771.51,40524,9.38,73250.5,-3.21,-4.01,-4.01,0,*57
1514120772.77,40525,9.38,73268.0,-3.21,-4.01,-3.95,0,*5C
1514120774.05,40526,9.38,73260.8,-3.21,-4.01,-4.01,0,*55
1514120775.25,40527,9.38,73266.0,-3.19,-3.95,-3.95,0,*5F
1514120776.45,40528,9.38,73272.8,-3.19,-3.95,-3.95,0,*50
1514120777.73,40529,9.38,73282.3,-3.21,-4.01,-4.01,0,*5A
1514120778.99,40530,9.38,73292.8,-3.21,-4.01,-3.95,0,*58
1514120780.27,40531,9.38,73294.3,-3.21,-4.01,-4.01,0,*53
1514120781.55,40532,9.38,73296.5,-3.21,-4.01,-4.01,0,*50
1514120782.83,40533,9.38,73286.5,-3.21,-4.01,-4.01,0,*51
1514120784.11,40534,9.38,73278.3,-3.21,-4.01,-4.01,0,*56
1514120785.36,40535,9.38,73278.5,-3.21,-4.05,-4.01,0,*53
1514120786.58,40536,9.38,73262.8,-3.19,-4.01,-3.95,0,*55
1514120787.83,40537,9.38,73288.0,-3.21,-4.05,-4.01,0,*51
1514120789.03,40538,9.38,73284.0,-3.19,-3.95,-3.95,0,*51
1514120790.31,40539,9.38,73276.8,-3.21,-4.01,-4.01,0,*5B
1514120791.56,40540,9.38,73274.8,-3.21,-4.05,-4.01,0,*51
1514120792.79,40541,9.38,73282.0,-3.19,-4.01,-3.95,0,*55
1514120794.04,40542,9.38,73272.8,-3.21,-4.05,-4.01,0,*53
1514120795.26,40543,9.38,73266.3,-3.21,-4.05,-3.95,0,*58
1514120796.51,40544,9.38,73274.5,-3.21,-4.05,-4.01,0,*55
1514120797.79,40545,9.38,73272.5,-3.21,-4.01,-4.01,0,*50
1514120799.05,40546,9.38,73268.5,-3.21,-4.01,-3.95,0,*59
1514120800.33,40547,9.38,73272.8,-3.21,-4.01,-4.01,0,*52
1514120801.61,40548,9.38,73276.5,-3.21,-4.01,-4.01,0,*5D
1514120802.89,40549,9.38,73280.8,-3.21,-4.01,-4.01,0,*5C
1514120804.17,40550,9.38,73280.5,-3.21,-4.01,-4.01,0,*54
1514120805.45,40551,9.38,73276.5,-3.21,-4.01,-4.01,0,*55
1514120806.73,40552,9.38,73262.3,-3.21,-4.01,-4.01,0,*56
1514120808.01,40553,9.38,73242.0,-3.21,-4.01,-4.01,0,*57
1514120809.29,40554,9.38,73248.0,-3.21,-4.01,-4.01,0,*50
1514120810.57,40555,9.38,73258.3,-3.21,-4.01,-4.01,0,*51
1514120811.85,40556,9.38,73270.5,-3.21,-4.01,-4.01,0,*52
1514120813.13,40557,9.38,73274.3,-3.21,-4.01,-4.01,0,*53
1514120814.41,40558,9.38,73274.8,-3.21,-4.01,-4.01,0,*5C
1514120815.69,40559,9.38,73272.0,-3.21,-4.01,-4.01,0,*5D
1514120816.97,40560,9.38,73290.0,-3.21,-4.01,-4.01,0,*57
1514120818.25,40561,9.38,73286.5,-3.21,-4.01,-4.01,0,*56
1514120819.53,40562,9.38,73274.3,-3.21,-4.01,-4.01,0,*55
1514120820.75,40563,9.38,73260.8,-3.23,-4.05,-4.01,0,*52
1514120821.97,40564,9.38,73236.5,-3.23,-4.05,-4.01,0,*55
1514120823.22,40565,9.38,73188.3,-3.23,-4.01,-4.01,0,*50
1514120824.47,40566,9.38,73222.5,-3.23,-4.01,-4.01,0,*53
1514120825.72,40567,9.38,73238.0,-3.23,-4.01,-4.01,0,*52
1514120826.97,40568,9.38,73272.3,-3.23,-4.01,-4.01,0,*5D
1514120828.22,40569,9.38,73266.8,-3.23,-4.01,-4.01,0,*5C
1514120829.48,40570,9.38,73270.3,-3.23,-4.01,-4.01,0,*54
1514120830.73,40571,9.38,73280.8,-3.23,-4.01,-4.01,0,*55
1514120831.98,40572,9.38,73302.5,-3.23,-4.01,-4.01,0,*56
1514120833.23,40573,9.38,73290.3,-3.23,-4.01,-4.01,0,*57
1514120834.48,40574,9.38,73302.0,-3.23,-4.01,-4.01,0,*50
1514120835.73,40575,9.38,73304.0,-3.23,-4.01,-4.01,0,*51
1514120836.96,40576,9.38,73304.5,-3.23,-4.01,-4.05,0,*56
1514120838.18,40577,9.38,73280.0,-3.23,-4.01,-4.05,0,*57
1514120839.43,40578,9.38,73286.3,-3.23,-4.01,-4.01,0,*5C
1514120840.65,40579,9.38,73288.3,-3.25,-4.09,-4.05,0,*57
1514120841.9,40580,9.38,73292.3,-3.23,-4.01,-4.01,0,*5B
1514120843.15,40581,9.38,73288.0,-3.23,-4.01,-4.01,0,*5A
1514120844.37,40582,9.38,73292.3,-3.23,-4.05,-4.01,0,*5D
1514120845.59,40583,9.38,73290.3,-3.23,-4.05,-4.01,0,*5C
1514120846.79,40584,9.38,73288.5,-3.23,-4.09,-4.05,0,*53
1514120848.01,40585,9.38,73292.5,-3.23,-4.05,-4.01,0,*5A
1514120849.25,40586,9.38,73286.8,-3.25,-4.09,-4.01,0,*53
1514120850.45,40587,9.38,73278.0,-3.23,-4.05,-3.95,0,*52
1514120851.7,40588,9.38,73282.0,-3.21,-4.01,-4.05,0,*55
1514120852.93,40589,9.38,73276.0,-3.23,-4.01,-4.05,0,*56
1514120854.15,40590,9.38,73282.8,-3.25,-4.05,-4.05,0,*5C
1514120855.4,40591,9.38,73282.8,-3.23,-4.01,-4.01,0,*5B
1514120856.65,40592,9.38,73276.3,-3.23,-4.01,-4.01,0,*58
1514120857.9,40593,9.38,73280.0,-3.23,-4.01,-4.01,0,*59
1514120859.15,40594,9.38,73284.8,-3.25,-4.05,-4.01,0,*5C
1514120860.4,40595,9.38,73296.5,-3.23,-4.01,-4.01,0,*5F
1514120861.64,40596,9.38,73306.5,-3.25,-4.05,-4.01,0,*5E
1514120862.87,40597,9.38,73296.3,-3.25,-4.05,-4.05,0,*5B
1514120864.09,40598,9.38,73288.3,-3.25,-4.05,-4.05,0,*54
1514120865.31,40599,9.38,73298.0,-3.23,-4.01,-4.05,0,*57
1514120866.53,40600,9.38,73280.3,-3.23,-4.05,-4.01,0,*54
1514120867.78,40601,9.38,73266.0,-3.23,-4.01,-4.01,0,*51
1514120869.0,40602,9.38,73270.5,-3.25,-4.05,-4.05,0,*54
1514120870.23,40603,9.38,73274.0,-3.25,-4.05,-4.05,0,*55
1514120871.48,40604,9.38,73268.8,-3.23,-4.01,-4.01,0,*54
1514120872.73,40605,9.38,73278.0,-3.23,-4.01,-4.01,0,*55
1514120873.95,40606,9.38,73256.5,-3.23,-4.05,-4.01,0,*52
1514120875.17,40607,9.38,73262.5,-3.23,-4.05,-4.01,0,*53
1514120876.39,40608,9.38,73262.5,-3.23,-4.05,-4.01,0,*5C
1514120877.61,40609,9.38,73280.8,-3.25,-4.09,-4.05,0,*53
1514120878.83,40610,9.38,73282.8,-3.25,-4.09,-4.05,0,*5B
1514120880.02,40611,9.38,73286.3,-3.23,-4.09,-4.05,0,*5C
1514120881.24,40612,9.38,73296.8,-3.25,-4.09,-4.05,0,*59
1514120882.46,40613,9.38,73284.0,-3.23,-4.05,-4.01,0,*56
1514120883.68,40614,9.38,73286.5,-3.25,-4.09,-4.05,0,*5F
1514120884.93,40615,9.38,73286.8,-3.25,-4.09,-4.01,0,*5A
1514120886.15,40616,9.38,73284.3,-3.25,-4.09,-4.05,0,*5D
1514120887.37,40617,9.38,73270.0,-3.25,-4.09,-4.05,0,*5C
1514120888.62,40618,9.38,73234.0,-3.25,-4.09,-4.01,0,*57
1514120889.84,40619,9.38,73232.5,-3.25,-4.05,-4.05,0,*5E
1514120891.06,40620,9.38,73238.0,-3.25,-4.05,-4.05,0,*54
1514120892.31,40621,9.38,73230.8,-3.25,-4.09,-4.01,0,*5D
1514120893.53,40622,9.38,73236.0,-3.25,-4.09,-4.09,0,*56
1514120894.72,40623,9.38,73244.8,-3.23,-4.09,-4.09,0,*51
1514120895.94,40624,9.38,73240.0,-3.25,-4.09,-4.09,0,*50
1514120897.16,40625,9.38,73242.3,-3.25,-4.05,-4.09,0,*5D
1514120898.38,40626,9.38,73234.3,-3.25,-4.05,-4.09,0,*5E
1514120899.61,40627,9.38,73236.5,-3.25,-4.05,-4.09,0,*5F
1514120900.83,40628,9.38,73248.5,-3.25,-4.05,-4.05,0,*5C
1514120902.05,40629,9.38,73256.3,-3.25,-4.05,-4.09,0,*51
1514120903.27,40630,9.38,73264.8,-3.25,-4.05,-4.09,0,*59
1514120904.49,40631,9.38,73242.3,-3.25,-4.05,-4.09,0,*58
1514120905.74,40632,9.38,73258.0,-3.25,-4.05,-4.01,0,*53
1514120906.96,40633,9.38,73236.3,-3.25,-4.05,-4.05,0,*56
1514120908.18,40634,9.38,73224.8,-3.25,-4.05,-4.05,0,*51
1514120909.43,40635,9.38,73252.0,-3.25,-4.05,-4.01,0,*54
1514120910.65,40636,9.38,73250.8,-3.25,-4.05,-4.05,0,*53
1514120911.87,40637,9.38,73262.5,-3.25,-4.05,-4.05,0,*52
1514120913.12,40638,9.38,73274.8,-3.25,-4.05,-4.01,0,*59
1514120914.31,40639,9.38,73294.0,-3.27,-4.13,-4.09,0,*55